TimeCDT,TemperatureF,Dew PointF,Humidity,Sea Level PressureIn,VisibilityMPH,Wind Direction,Wind SpeedMPH,Gust SpeedMPH,PrecipitationIn,Events,Conditions,WindDirDegrees,DateUTC
12:56 AM,66.9,64.0,90,29.94,10.0,Calm,Calm,-,N/A,,Partly Cloudy,0,2013-10-17 05:56:00
1:56 AM,68.0,64.9,90,29.94,10.0,SSW,3.5,-,N/A,,Mostly Cloudy,210,2013-10-17 06:56:00
2:56 AM,68.0,66.0,93,29.93,10.0,Calm,Calm,-,N/A,,Mostly Cloudy,0,2013-10-17 07:56:00
3:56 AM,66.0,64.0,93,29.92,6.0,Calm,Calm,-,N/A,,Clear,0,2013-10-17 08:56:00
4:56 AM,64.9,63.0,93,29.92,3.0,Calm,Calm,-,N/A,,Scattered Clouds,0,2013-10-17 09:56:00
5:56 AM,66.9,64.9,93,29.94,7.0,SSW,3.5,-,N/A,,Overcast,200,2013-10-17 10:56:00
6:56 AM,66.9,64.9,93,29.93,7.0,South,3.5,-,N/A,,Overcast,180,2013-10-17 11:56:00
7:56 AM,68.0,66.0,93,29.94,7.0,South,3.5,-,N/A,,Overcast,180,2013-10-17 12:56:00
8:56 AM,70.0,66.9,90,29.96,10.0,South,3.5,-,N/A,,Overcast,180,2013-10-17 13:56:00
9:56 AM,73.9,68.0,82,29.96,10.0,Variable,4.6,-,0.00,,Overcast,0,2013-10-17 14:56:00
10:56 AM,75.9,70.0,82,29.95,10.0,SSW,5.8,-,0.00,Rain,Light Rain,210,2013-10-17 15:56:00
11:40 AM,75.2,69.8,83,29.96,10.0,WSW,4.6,-,0.00,,Overcast,240,2013-10-17 16:40:00
11:56 AM,77.0,70.0,79,29.94,10.0,SW,8.1,-,0.00,,Overcast,220,2013-10-17 16:56:00
12:20 PM,78.8,69.8,74,29.94,10.0,SW,8.1,-,N/A,,Overcast,230,2013-10-17 17:20:00
12:56 PM,77.0,70.0,79,29.92,7.0,West,12.7,17.3,0.02,Rain,Light Rain,280,2013-10-17 17:56:00
12:58 PM,75.2,69.8,83,29.93,1.5,WNW,11.5,17.3,0.12,Rain,Rain,300,2013-10-17 17:58:00
1:01 PM,73.4,71.6,94,29.93,0.8,NW,10.4,17.3,0.20,Rain,Heavy Rain,310,2013-10-17 18:01:00
1:08 PM,73.4,71.6,94,29.93,1.0,WNW,10.4,17.3,0.21,Rain,Light Rain,290,2013-10-17 18:08:00
1:11 PM,73.4,71.6,94,29.93,3.0,WNW,8.1,17.3,0.21,Rain,Light Rain,290,2013-10-17 18:11:00
1:19 PM,73.4,71.6,94,29.92,10.0,NW,6.9,-,0.21,,Overcast,320,2013-10-17 18:19:00
1:24 PM,73.4,71.6,94,29.92,10.0,NW,5.8,-,0.21,,Overcast,310,2013-10-17 18:24:00
1:32 PM,73.4,69.8,88,29.92,10.0,NNW,6.9,-,0.21,,Overcast,330,2013-10-17 18:32:00
1:46 PM,75.2,71.6,89,29.91,10.0,NW,5.8,-,0.21,,Overcast,320,2013-10-17 18:46:00
1:56 PM,77.0,71.1,82,29.90,10.0,WNW,11.5,-,0.21,,Overcast,290,2013-10-17 18:56:00
2:07 PM,75.2,69.8,83,29.91,10.0,NW,8.1,-,N/A,,Mostly Cloudy,310,2013-10-17 19:07:00
2:48 PM,73.4,69.8,88,29.91,10.0,Variable,5.8,-,N/A,,Overcast,0,2013-10-17 19:48:00
2:56 PM,73.9,69.1,85,29.90,10.0,WNW,4.6,-,N/A,,Overcast,300,2013-10-17 19:56:00
3:14 PM,71.6,69.8,94,29.92,7.0,NW,8.1,16.1,0.00,Rain,Light Rain,310,2013-10-17 20:14:00
3:23 PM,71.6,68.0,88,29.92,7.0,WNW,6.9,-,0.00,Rain,Light Rain,300,2013-10-17 20:23:00
3:32 PM,71.6,68.0,88,29.91,10.0,NW,4.6,-,0.00,,Overcast,310,2013-10-17 20:32:00
3:47 PM,73.4,69.8,88,29.91,10.0,NW,6.9,-,0.00,,Overcast,310,2013-10-17 20:47:00
3:56 PM,72.0,69.1,91,29.90,10.0,NNW,4.6,-,0.00,,Overcast,330,2013-10-17 20:56:00
4:42 PM,71.6,66.2,83,29.92,10.0,NW,3.5,-,N/A,,Overcast,320,2013-10-17 21:42:00
4:56 PM,72.0,66.9,84,29.91,10.0,NNW,4.6,-,N/A,,Overcast,330,2013-10-17 21:56:00
5:43 PM,71.6,66.2,83,29.93,10.0,NNW,5.8,-,N/A,,Overcast,340,2013-10-17 22:43:00
5:56 PM,70.0,66.0,87,29.92,10.0,NNW,5.8,-,N/A,,Overcast,330,2013-10-17 22:56:00
6:32 PM,69.8,66.2,88,29.94,10.0,Variable,4.6,-,N/A,,Overcast,0,2013-10-17 23:32:00
6:42 PM,69.8,66.2,88,29.94,10.0,NW,3.5,-,N/A,,Overcast,320,2013-10-17 23:42:00
6:56 PM,69.1,64.9,87,29.93,10.0,NNW,9.2,-,N/A,,Overcast,330,2013-10-17 23:56:00
7:43 PM,66.2,64.4,94,29.96,5.0,NNW,6.9,-,N/A,,Overcast,340,2013-10-18 00:43:00
7:56 PM,66.9,64.9,93,29.95,4.0,NNW,6.9,-,N/A,,Overcast,340,2013-10-18 00:56:00
8:08 PM,66.2,64.4,94,29.96,6.0,NNW,6.9,-,N/A,,Overcast,330,2013-10-18 01:08:00
8:23 PM,66.2,64.4,94,29.97,8.0,NNW,5.8,-,N/A,,Overcast,330,2013-10-18 01:23:00
8:56 PM,66.0,64.0,93,29.96,5.0,NW,5.8,-,N/A,,Overcast,320,2013-10-18 01:56:00
9:26 PM,66.2,64.4,94,29.97,10.0,NW,6.9,-,N/A,,Overcast,320,2013-10-18 02:26:00
9:56 PM,66.0,63.0,90,29.97,10.0,NW,3.5,-,N/A,,Overcast,310,2013-10-18 02:56:00
10:56 PM,64.9,63.0,93,29.96,10.0,NNW,5.8,-,N/A,,Overcast,330,2013-10-18 03:56:00
11:56 PM,64.9,62.1,90,29.95,10.0,NNW,5.8,-,N/A,,Overcast,340,2013-10-18 04:56:00